Other Surface Observations
Issued by NWS

Home | Current Version | Previous Version | Text Only | Print | Product List | Glossary On
Versions: 1 2 3 4 5 6 7 8 9 10 11 12 13 14 15 16 17 18 19 20 21 22 23 24 25 26 27 28 29 30 31 32 33 34 35 36 37 38 39 40 41 42 43 44 45 46 47 48 49 50
000
SXUS52 KTAE 201505
OSOTAE
OSOTAE
North Florida/South Alabama/Southwest Georgia Weather Roundup
National Weather Service Tallahassee Florida
1000 AM EST FRI JAN 20 2017

Note: "fair" indicates few or no clouds below 12,000 feet with no
significant weather and/or obstructions to visibility.

!FLZ017-115-028-034-025-201600
...North Florida...

CITY           SKY/WX    TMP DP  RH WIND       PRES   REMARKS
TALLAHASSEE    MOSUNNY   69  66  90 SW9       29.92R
APALACHICOLA   SUNNY     72  70  93 SW10      29.92R
PERRY          SUNNY     71  65  81 SW7       29.95R
CROSS CITY     PTSUNNY   68  64  88 S7        29.97R
JACKSONVILLE   MOSUNNY   72  63  73 SW13      29.93R
$$

!FLZ112-006-005-002-011-201600
...Florida Panhandle...

CITY           SKY/WX    TMP DP  RH WIND       PRES   REMARKS
MARIANNA       MOSUNNY   69  66  90 S8        29.90R
BONIFAY        PTSUNNY   69  67  93 VRB3      29.91R
PANAMA CITY NW FAIR      72  67  84 S7        29.90R
TYNDALL AFB    SUNNY     73  68  83 S9        29.91R
TYND DRONE APT FAIR      73  70  91 S8        29.91R
DE FUNIAK SPR  CLOUDY    66  66 100 S5        29.91R
EGLIN AFB      PTSUNNY   72  68  87 SW5       29.89R
DESTIN         MOSUNNY   75  72  90 SW3       29.89R
HURLBURT       NOT AVBL
CRESTVIEW      PTSUNNY   67  65  93 CALM      29.92R
PENSACOLA      CLOUDY    72  68  87 SW6       29.89R
$$

!ALZ063-066-201600
...South Alabama...

CITY           SKY/WX    TMP DP  RH WIND       PRES   REMARKS
DOTHAN         FOG       65  65 100 SW10      29.94R VSB 1
OZARK CAIRNS   CLOUDY    64  64 100 SW5       29.89S FOG
FT RUCKER HELI CLOUDY    66  64  93 SW5       29.90R
RUCKER HELI 3  NOT AVBL
RUCKER HELI 2  CLOUDY    65  64  97 VRB3      29.91R FOG
FLORALA APT    CLOUDY    68  65  90 SW6       29.92R
ANDALUSIA      CLOUDY    68  63  84 SW6       29.91R
TROY           CLOUDY    65  63  93 SW8       29.91R
EUFALA         CLOUDY    68  62  81 SW6       29.90R
MOBILE         PTSUNNY   68  64  87 S7        29.89R
$$

!GAZ120>161-201600
...Southwest and South Central Georgia...

CITY           SKY/WX    TMP DP  RH WIND       PRES   REMARKS
THOMASVILLE    PTSUNNY   68  68 100 W7        29.94R
BAINBRIDGE     CLOUDY    66  63  88 SW6       29.93R
MOODY AFB      PTSUNNY   70  64  83 SW9       29.92R
VALDOSTA       CLOUDY    69  66  90 VRB5      29.94R
MOULTRIE       CLOUDY    64  63  94 SW8       29.94R
BLAKELY        CLOUDY    68  64  88 CALM      29.92R FOG
ALBANY         CLOUDY    66  64  93 SW12      29.94R
TIFTON         CLOUDY    65  65  97 W9        29.93R
FITZGERALD     CLOUDY    67  65  90 SW3       29.94R
CORDELE        CLOUDY    68  66  93 W7        29.93R
AMERICUS       CLOUDY    63  63 100 W6        29.94R
HOMERVILLE     CLOUDY    68  68 100 SW7       29.94R
$$

!GMZ750-755-770-775-201600
...Coastal and Buoy Obs...

STATION/POSITION TIME  TEMP    WIND        PRES    VSBY  WAVE
                       AIR SEA DIR/SP/G                  HT/PER
                 (UTC) (F)     (DEG/KT/KT) (MB)    (MI)  (FT/S)
KEATON BEACH     1500   67     220/  3/  5 1014.0R
CEDAR KEY        1400   67     230/  5/  9 1014.6R
C TOWER          1500   71     200/ 16/ 16 1014.1R
APALACHICOLA BUO 1350   72 73  200/ 10/ 12 1013.7          3/ 5
PANAMA CITY BUOY 1350   75 75              1012.9          4/ 6
MOBILE BUOY      NOT AVBL
ORANGE BCH AL BU 1450   68 66  190/  6/  8 1011.7R         3/ 6
$$




USA.gov is the U.S. government's official web portal to all federal, state and local government web resources and services.